Temperature
7 7 7 7 7 7 7 7 7 7 7 8 8 8 8 8 8 8 8 7 8 8 8 8 8 8 8 8 8 8 9 9 9 10 10 10 10 10
7 6 6 6 6 6 6 6 6 7 7 7 7 8 8 7 7 7 7 7 7 7 7 7 7 7 7 7 8 8 8 8 9 9 9 9 9 9
6 6 6 5 5 5 6 6 6 6 6 6 7 7 7 7 7 7 7 7 7 7 7 6 6 6 7 7 7 7 7 8 8 8 8 8 8 8
5 5 5 4 3 3 4 5 5 5 6 6 6 6 7 7 7 7 7 7 7 6 6 6 6 6 6 6 6 6 7 7 7 7 7 7 7 8
4 4 3 2 1 2 3 4 4 5 5 5 5 6 6 6 6 6 6 6 6 6 6 6 5 5 5 5 5 6 6 6 6 6 6 6 6 7
1 1 1 0 0 1 2 2 3 3 4 4 5 5 5 5 6 6 5 5 5 5 5 5 5 5 5 5 5 5 5 5 4 5 5 5 6 6
-1 -1 -1 -1 -1 -0 0 1 1 2 2 3 4 4 4 4 5 5 5 4 4 4 4 4 4 4 4 4 4 4 4 3 3 4 4 4 5 6
-3 -3 -2 -2 -2 -2 -1 -1 -0 -0 1 1 2 2 3 3 3 4 4 4 3 3 3 3 3 3 3 3 3 3 3 3 3 3 3 3 4 4
-6 -5 -5 -4 -4 -3 -3 -2 -2 -2 -2 -1 -0 0 1 1 1 2 2 3 2 2 2 2 2 2 2 2 2 3 2 2 2 2 2 2 2 1
-7 -7 -6 -6 -5 -5 -4 -4 -4 -4 -4 -3 -2 -2 -2 -1 -1 -0 0 1 1 1 1 1 1 1 1 1 1 2 1 1 1 1 1 1 0 0
-8 -8 -8 -8 -8 -6 -6 -6 -5 -5 -5 -5 -4 -4 -4 -3 -2 -2 -2 -1 -1 -1 -1 -1 -0 0 0 -0 0 1 0 0 0 0 0 0 0 0
-9 -9 -9 -9 -9 -8 -7 -7 -6 -6 -6 -6 -6 -6 -5 -5 -5 -4 -4 -3 -3 -3 -3 -3 -2 -1 -1 -0 -0 -0 -0 -1 -0 -0 -0 0 0 0
-10 -10 -10 -10 -10 -10 -9 -8 -8 -7 -7 -7 -7 -7 -7 -7 -6 -6 -6 -5 -5 -5 -4 -4 -3 -3 -2 -1 -1 -1 -1 -1 -1 -1 -1 -0 -0 -0
-10 -10 -10 -11 -10 -10 -10 -10 -9 -8 -8 -8 -8 -8 -8 -8 -8 -7 -7 -6 -6 -6 -6 -5 -5 -4 -4 -3 -2 -2 -2 -2 -2 -1 -1 -1 -1 -1
-10 -11 -11 -11 -10 -11 -11 -10 -9 -9 -9 -9 -9 -9 -9 -8 -8 -8 -8 -7 -7 -8 -7 -7 -7 -6 -6 -6 -5 -4 -4 -3 -3 -3 -2 -2 -1 -1
-10 -11 -11 -11 -11 -11 -11 -11 -11 -10 -10 -10 -10 -10 -10 -10 -9 -9 -8 -8 -8 -9 -9 -9 -9 -9 -8 -7 -6 -6 -6 -6 -5 -4 -3 -2 -2 -2
-11 -11 -12 -12 -12 -12 -12 -12 -12 -12 -11 -11 -11 -11 -11 -11 -10 -10 -9 -9 -9 -9 -9 -10 -10 -9 -9 -8 -7 -7 -7 -6 -6 -6 -5 -3 -2 -2
-12 -12 -13 -13 -13 -13 -13 -13 -13 -13 -13 -13 -13 -12 -12 -12 -11 -11 -11 -11 -10 -10 -10 -10 -10 -9 -9 -9 -9 -8 -8 -7 -6 -6 -6 -6 -4 -2
-13 -13 -14 -14 -14 -14 -14 -14 -14 -14 -14 -14 -14 -14 -14 -13 -13 -12 -12 -12 -11 -11 -11 -12 -12 -12 -11 -10 -9 -9 -9 -8 -7 -6 -6 -6 -6 -4
-14 -14 -14 -15 -15 -15 -15 -15 -15 -15 -15 -15 -15 -15 -15 -15 -14 -14 -13 -13 -13 -12 -11 -12 -13 -13 -14 -14 -12 -9 -9 -9 -9 -8 -7 -7 -6 -5
-15 -15 -15 -15 -15 -15 -15 -15 -15 -16 -16 -16 -16 -16 -16 -16 -15 -15 -14 -14 -14 -13 -13 -12 -13 -14 -14 -13 -13 -10 -8 -9 -10 -10 -9 -9 -8 -7
-16 -16 -16 -16 -16 -16 -16 -16 -16 -16 -16 -16 -16 -16 -16 -16 -16 -15 -15 -15 -15 -14 -14 -13 -13 -13 -13 -13 -13 -12 -9 -8 -9 -9 -9 -9 -10 -11
-16 -16 -16 -16 -16 -16 -16 -16 -16 -16 -16 -16 -16 -16 -16 -16 -16 -16 -15 -15 -15 -15 -14 -13 -13 -13 -13 -13 -13 -12 -11 -9 -9 -9 -8 -8 -9 -9
Wind_Speed
6 4 1 1 2 3 3 4 5 4 4 3 2 2 4 7 13 13 12 14 15 13 11 10 8 6 5 4 4 4 5 5 6 8 9 10 11 12
6 6 4 3 2 0 2 3 4 5 5 5 5 3 4 4 13 14 14 17 17 14 12 11 9 7 5 3 3 4 5 6 7 8 9 11 12 13
6 7 6 6 5 4 1 2 3 4 5 5 3 2 4 5 5 9 12 13 13 14 14 12 9 7 5 2 1 4 5 5 6 8 10 11 11 12
7 8 7 6 4 4 2 2 1 3 5 6 4 3 4 5 6 7 5 9 10 16 17 14 10 8 5 2 2 3 3 3 4 7 9 10 11 13
8 9 8 6 2 1 4 4 3 2 2 5 4 2 1 1 4 4 4 3 5 12 17 14 11 9 7 5 3 1 2 3 4 5 7 9 11 14
10 10 8 5 3 4 5 5 4 3 2 2 2 2 2 2 2 4 4 3 3 3 6 10 11 11 11 10 9 6 4 4 5 7 8 10 12 13
11 10 9 10 10 7 6 5 5 4 3 2 2 2 2 3 2 1 3 4 4 4 3 3 4 5 6 7 6 6 6 7 8 10 10 11 13 15
9 8 8 10 11 12 12 11 9 5 3 2 2 2 3 3 3 2 3 3 3 3 2 2 2 3 3 6 10 14 15 15 13 12 12 12 13 15
7 7 7 8 9 7 8 9 10 11 10 5 4 4 3 4 3 3 3 3 3 2 1 2 3 3 4 9 16 17 16 14 14 13 13 12 12 13
8 8 8 8 8 8 6 8 9 9 9 6 5 4 3 3 3 2 2 3 5 5 4 2 4 3 4 5 14 15 15 14 13 13 13 12 13 14
7 8 7 7 10 10 7 7 8 7 10 13 14 13 11 8 3 2 2 3 3 4 6 3 2 3 3 2 7 13 13 13 13 13 13 12 13 13
6 7 9 7 9 10 6 6 7 6 7 9 12 14 13 14 16 9 5 3 3 3 4 3 2 3 3 3 3 6 8 11 14 14 13 12 12 9
3 3 5 8 9 11 9 7 9 7 7 8 8 8 8 8 8 9 8 6 4 3 3 2 1 2 2 3 4 3 3 5 8 9 11 12 13 12
1 2 4 8 10 11 11 13 13 9 6 7 7 7 7 7 7 7 9 8 6 3 4 3 1 1 1 2 3 4 4 5 5 3 5 13 14 14
1 1 3 8 9 9 13 14 11 7 7 7 7 6 6 6 6 5 7 7 7 7 8 7 3 2 1 2 3 3 4 4 3 3 5 5 4 5
1 4 6 8 9 10 10 8 7 7 7 6 5 5 5 6 6 6 5 5 3 3 6 9 8 3 2 4 4 4 4 4 4 6 5 5 5 7
3 2 3 4 4 4 5 5 5 5 6 5 5 5 5 5 5 5 4 4 3 3 3 4 6 7 5 5 4 5 4 4 4 4 5 7 6 5
6 4 4 3 3 3 3 3 3 3 3 3 3 3 3 3 3 3 3 3 2 2 3 3 4 4 3 3 4 4 4 4 5 7 7 7 7 6
7 4 3 2 1 1 2 1 1 1 2 2 1 0 1 1 2 2 2 3 3 3 3 3 3 3 3 4 5 5 6 8 9 10 8 7 9 11
5 3 2 2 1 1 2 2 2 2 2 2 2 2 2 2 2 3 3 3 4 4 4 2 2 2 3 5 6 7 12 10 8 9 10 9 8 12
4 3 3 2 2 2 2 3 3 3 3 3 3 3 3 3 3 4 4 7 5 3 5 5 4 8 5 4 6 6 6 10 11 10 10 11 11 9
3 4 4 4 3 2 3 3 3 3 4 4 4 4 4 4 5 6 5 4 4 5 6 7 6 5 3 5 8 9 11 10 12 19 18 16 10 7
4 4 4 4 4 4 4 4 5 4 4 5 5 5 5 5 5 5 6 6 6 6 7 8 6 4 5 6 8 10 12 13 11 10 11 17 21 23
Wind_Direction
97 85 102 155 176 179 163 156 156 184 234 259 252 220 180 173 169 160 161 164 158 155 150 144 138 130 111 83 53 28 12 7 11 9 1 356 355 354
105 84 56 29 22 25 195 184 170 170 208 233 231 230 188 183 181 168 169 168 166 164 159 154 150 141 123 88 47 21 9 9 13 11 4 359 358 357
99 94 71 44 19 357 312 189 187 172 199 241 245 241 187 182 173 178 174 165 173 177 172 169 166 156 144 127 20 6 1 2 4 358 354 353 353 353
91 87 74 63 29 348 8 58 136 193 191 214 228 209 203 193 175 177 176 174 176 180 176 177 174 170 170 193 285 317 327 336 342 345 346 346 346 344
76 83 80 90 103 50 48 48 36 41 190 196 204 182 145 121 143 143 138 142 174 173 171 170 167 164 150 126 100 41 302 289 296 312 317 320 329 333
60 67 73 87 102 87 63 38 31 34 39 133 136 109 72 15 112 136 115 82 60 70 125 132 128 112 99 92 85 70 36 347 315 311 312 313 317 322
44 43 47 50 58 68 74 56 39 31 28 55 88 95 73 54 72 98 133 115 61 34 47 60 81 73 61 51 53 49 48 54 56 50 32 10 351 335
40 33 39 35 32 37 49 56 54 47 31 32 43 77 70 37 24 66 114 138 121 38 62 33 40 67 43 41 64 73 72 66 56 44 28 14 6 358
47 38 36 28 35 24 33 54 55 60 58 50 46 44 54 22 23 55 62 80 85 15 45 87 33 56 39 63 76 67 58 48 40 32 22 10 358 345
54 43 36 16 27 31 44 71 67 59 64 65 79 67 56 36 35 43 42 86 87 30 21 82 27 10 9 44 57 51 43 36 27 17 6 356 350 342
49 43 36 11 37 45 49 68 64 45 53 67 73 76 75 74 82 65 56 97 96 39 12 63 27 345 337 351 32 32 27 23 12 358 347 343 339 334
40 20 19 29 53 58 41 52 67 52 56 74 70 63 57 55 55 49 41 70 95 92 11 31 29 0 339 328 347 11 21 11 355 344 339 339 342 345
52 5 347 30 47 50 53 49 69 69 68 80 73 64 55 50 46 43 40 45 65 83 17 7 33 25 358 325 326 334 4 347 334 329 337 340 340 340
78 330 352 47 47 52 61 55 56 59 64 71 68 60 54 51 46 42 37 37 39 38 0 4 25 10 338 305 296 314 323 307 305 309 326 331 332 334
201 154 60 68 61 50 56 56 52 50 59 66 61 52 46 50 42 30 24 21 24 41 36 29 22 341 262 255 273 288 310 298 299 311 309 304 300 313
67 33 53 81 76 67 59 51 47 59 64 60 55 46 42 39 35 23 16 10 20 23 8 13 16 5 299 271 266 269 260 273 297 305 299 291 294 308
120 84 72 74 73 70 68 61 58 58 58 56 53 46 39 29 23 16 13 13 14 356 342 343 339 318 275 257 273 279 280 271 270 303 312 309 293 281
104 92 90 89 87 82 76 68 64 74 63 62 62 47 34 13 359 354 1 1 337 313 314 319 324 327 329 299 255 273 295 302 310 317 313 305 302 301
61 55 54 62 99 127 133 138 142 132 133 116 115 106 332 333 335 332 335 332 319 304 301 303 326 344 345 324 301 300 310 309 308 308 305 300 300 303
33 25 7 340 279 220 207 203 209 221 217 215 219 232 248 264 281 287 289 284 297 300 303 305 301 302 298 307 298 284 290 287 292 299 303 300 293 296
12 5 354 339 313 272 249 235 227 233 239 239 237 237 241 243 257 266 269 293 300 296 297 290 265 299 295 279 280 281 276 282 292 292 294 297 302 299
316 317 318 316 305 281 267 257 250 247 245 242 244 244 243 241 251 259 260 263 265 265 274 279 273 277 255 273 285 286 293 299 296 293 283 277 282 287
267 273 279 287 288 279 265 258 252 251 248 246 248 248 245 246 248 249 252 255 258 265 275 284 285 269 268 273 280 283 285 295 304 302 293 292 289 283
Height
1422 1425 1428 1431 1433 1435 1436 1438 1441 1442 1444 1446 1447 1449 1451 1453 1456 1458 1461 1463 1466 1468 1470 1472 1474 1475 1476 1478 1479 1479 1481 1482 1483 1484 1485 1486 1487 1488
1416 1419 1423 1426 1429 1431 1433 1435 1437 1439 1440 1442 1445 1446 1448 1450 1453 1455 1458 1460 1463 1465 1467 1469 1470 1471 1472 1474 1475 1476 1476 1477 1479 1480 1481 1482 1482 1483
1411 1414 1417 1420 1424 1428 1429 1430 1432 1434 1436 1439 1441 1443 1444 1447 1449 1452 1455 1457 1459 1462 1464 1466 1468 1468 1469 1470 1471 1472 1473 1474 1475 1476 1477 1477 1478 1478
1407 1409 1411 1415 1421 1424 1425 1426 1427 1429 1432 1434 1437 1439 1441 1443 1446 1448 1451 1454 1456 1459 1461 1463 1465 1465 1466 1467 1468 1469 1471 1471 1472 1472 1472 1473 1473 1474
1402 1404 1407 1411 1416 1418 1419 1420 1421 1424 1426 1429 1432 1434 1436 1438 1441 1444 1447 1450 1452 1455 1457 1459 1461 1462 1462 1463 1465 1467 1468 1468 1468 1468 1468 1469 1468 1468
1399 1401 1404 1408 1410 1411 1412 1414 1416 1418 1421 1423 1426 1428 1430 1433 1436 1439 1442 1445 1448 1450 1452 1454 1456 1457 1458 1460 1461 1463 1464 1464 1464 1463 1464 1464 1464 1464
1397 1399 1402 1404 1405 1406 1407 1409 1411 1413 1415 1417 1420 1422 1425 1427 1430 1433 1436 1439 1441 1442 1445 1448 1451 1453 1455 1456 1458 1458 1459 1459 1458 1458 1458 1459 1459 1458
1397 1398 1399 1401 1402 1403 1404 1404 1406 1408 1410 1412 1414 1417 1419 1422 1425 1427 1430 1434 1435 1438 1440 1442 1446 1448 1450 1452 1452 1453 1452 1452 1452 1452 1453 1453 1453 1452
1398 1398 1398 1399 1400 1401 1401 1402 1404 1405 1407 1409 1410 1413 1415 1417 1420 1423 1425 1427 1430 1432 1436 1438 1441 1443 1446 1446 1446 1446 1446 1447 1447 1447 1447 1448 1448 1447
1399 1399 1399 1399 1399 1400 1401 1402 1403 1404 1405 1406 1408 1409 1411 1413 1415 1418 1421 1423 1425 1428 1431 1434 1436 1438 1440 1439 1440 1440 1441 1441 1441 1442 1442 1442 1441 1441
1400 1400 1400 1400 1400 1399 1400 1401 1401 1402 1403 1404 1405 1406 1408 1410 1412 1415 1417 1419 1420 1423 1426 1428 1430 1433 1434 1434 1434 1434 1435 1435 1436 1436 1436 1435 1434 1434
1403 1403 1402 1402 1401 1399 1399 1399 1400 1400 1402 1403 1404 1405 1407 1409 1410 1412 1414 1415 1416 1419 1421 1424 1425 1427 1428 1428 1428 1428 1429 1430 1430 1429 1427 1427 1426 1425
1404 1404 1403 1402 1401 1399 1398 1398 1398 1400 1401 1402 1403 1405 1406 1408 1409 1410 1412 1413 1414 1416 1418 1419 1420 1420 1421 1422 1423 1424 1424 1424 1423 1422 1420 1419 1419 1418
1405 1404 1403 1402 1401 1400 1399 1398 1399 1400 1401 1402 1403 1404 1406 1407 1408 1409 1410 1410 1412 1413 1414 1415 1415 1416 1416 1417 1418 1418 1419 1418 1416 1415 1414 1414 1413 1412
1405 1405 1404 1403 1402 1401 1400 1399 1400 1400 1400 1401 1402 1403 1404 1405 1406 1407 1408 1409 1410 1410 1411 1411 1412 1412 1413 1413 1412 1412 1411 1411 1410 1409 1409 1408 1407 1406
1404 1404 1404 1404 1403 1402 1401 1401 1400 1401 1401 1401 1402 1403 1404 1404 1405 1406 1407 1408 1409 1409 1409 1409 1409 1409 1409 1409 1408 1407 1405 1404 1403 1403 1402 1401 1401 1399
1403 1403 1404 1404 1403 1402 1402 1401 1401 1401 1401 1401 1401 1402 1403 1403 1404 1404 1404 1405 1405 1406 1406 1406 1406 1405 1405 1404 1403 1401 1399 1399 1398 1396 1394 1392 1393 1392
1402 1402 1403 1403 1403 1403 1402 1402 1401 1401 1400 1400 1400 1401 1401 1402 1402 1402 1402 1402 1402 1402 1402 1401 1401 1400 1400 1399 1398 1396 1395 1393 1391 1389 1387 1384 1382 1383
1401 1402 1403 1403 1403 1403 1402 1401 1401 1400 1400 1400 1399 1399 1399 1399 1399 1399 1399 1398 1398 1398 1397 1397 1396 1394 1393 1392 1392 1393 1391 1388 1385 1383 1381 1378 1374 1374
1403 1403 1403 1403 1402 1402 1401 1400 1400 1399 1399 1398 1398 1397 1397 1396 1396 1396 1395 1395 1394 1393 1393 1393 1392 1391 1390 1389 1386 1386 1387 1383 1380 1377 1375 1373 1370 1369
1403 1402 1402 1401 1400 1400 1399 1398 1398 1397 1396 1396 1395 1394 1393 1393 1392 1392 1391 1390 1389 1388 1387 1387 1388 1388 1386 1384 1382 1379 1380 1379 1376 1374 1371 1368 1365 1362
1402 1401 1399 1398 1397 1396 1396 1395 1395 1394 1393 1392 1391 1391 1390 1389 1388 1387 1386 1385 1384 1383 1382 1382 1383 1382 1381 1378 1375 1374 1372 1372 1372 1370 1369 1367 1363 1358
1401 1399 1397 1396 1394 1393 1392 1391 1390 1390 1389 1388 1387 1386 1385 1384 1383 1382 1381 1380 1379 1378 1377 1377 1377 1376 1375 1373 1370 1368 1366 1365 1364 1363 1363 1363 1361 1358